Regional Weather Roundup
Issued by NWS

Home | Current Version | Previous Version | Graphics & Text | Print | Product List | Glossary On
Versions: 1 2 3 4 5 6 7 8 9 10 11 12 13 14 15 16 17 18 19 20 21 22 23 24 25 26 27 28 29 30 31 32 33 34 35 36 37 38 39 40 41 42 43 44 45 46 47 48 49 50
000
ASUS43 KLOT 231010
RWRIL

ILLINOIS REGIONAL WEATHER ROUNDUP
NATIONAL WEATHER SERVICE CHICAGO/ROMEOVILLE IL
500 AM CDT WED APR 23 2014

NOTE: "FAIR" INDICATES FEW OR NO CLOUDS BELOW 12,000 FEET WITH NO
SIGNIFICANT WEATHER AND/OR OBSTRUCTIONS TO VISIBILITY.

* THESE STATIONS ARE NOT UNDER NWS QUALITY CONTROL. THEY ALSO MAY NOT
  REPORT WEATHER SUCH AS PRECIPITATION OR FOG.

ILZ001-002-007-009-015-016-024-231100-
NORTHWEST ILLINOIS

CITY           SKY/WX    TMP DP  RH WIND       PRES   REMARKS
MOLINE         CLEAR     34  29  82 E7        30.12R WCI  28
STERLING*      CLEAR     34  28  80 E7        30.13S WCI  28
SAVANNA*       PTCLDY    34  30  87 E3        30.13S
$$

ILZ003-004-008-010-011-017-018-231100-
NORTH CENTRAL ILLINOIS

CITY           SKY/WX    TMP DP  RH WIND       PRES   REMARKS
ROCKFORD       CLEAR     35  27  72 CALM      30.16R
FREEPORT*      CLEAR     28  25  86 E3        30.16R
ROCHELLE*      CLEAR     31  27  84 CALM      30.14S
DE KALB*       CLEAR     28  25  87 NE6       30.14R WCI  22
PERU*          CLEAR     34  29  80 CALM      30.14R
$$

ILZ005-006-012>014-019>023-231100-
NORTHEAST ILLINOIS

CITY           SKY/WX    TMP DP  RH WIND       PRES   REMARKS
CHICAGO-OHARE  CLEAR     35  26  69 N7        30.13S WCI  29
CHICAGO-MIDWAY CLEAR     37  28  70 N12       30.13R WCI  29
AURORA         CLEAR     31  26  82 NE6       30.13R WCI  25
LANSING*       CLEAR     35  28  75 NE7       30.13S WCI  29
JOLIET*        CLEAR     34  28  79 NE6       30.14S WCI  29
WAUKEGAN       CLEAR     30  26  85 NW3       30.14R
DUPAGE AIRPORT CLEAR     29  25  85 N6        30.13R WCI  23
KANKAKEE*      CLEAR     35  30  83 N7        30.13R WCI  29
WHEELING       CLEAR     34  28  79 N5        30.15R WCI  30
MORRIS*        CLEAR     32  26  79 CALM      30.13S
ROMEOVILLE*    CLEAR     35  29  79 NE10      30.12S WCI  27
NORTHERLY ISL    N/A     37  29  73 N15         N/A  WCI  28
$$

LMZ740>746-231100-
SOUTHERN LAKE MICHIGAN

STATION/POSITION SKY/WX   TEMP    WIND        PRES    VSBY  WAVE
                          AIR SEA DIR/SP/G                  HT/PER
                          (F)     (DEG/KT/KT) (MB)    (MI)  (FT/S)
WAUKEGAN HARBOR            36     360/  9/ 13 1022.0S
HARRISON CRIB              37     360/ 18/ 21   N/A
BURNHAM HARBOR             37      20/ 16/ 16   N/A
CALUMET HARBOR             37     360/ 15/ 18 1021.1S
MICHIGAN CITY              36     360/ 19/ 23   N/A
$$

ILZ025>027-034>036-040-047-049-050-058-095>099-231100-
WEST-CENTRAL ILLINOIS

CITY           SKY/WX    TMP DP  RH WIND       PRES   REMARKS
QUINCY         PTCLDY    44  33  65 E10       30.06S
GALESBURG*     CLEAR     36  31  83 E3        30.11R
MACOMB*        CLEAR     36  32  84 E7        30.11F WCI  31
JACKSONVILLE*  CLEAR     38  32  78 E8        30.10S WCI  32
PITTSFIELD*    CLEAR     44  35  70 NE7       30.09R
$$

ILZ028>032-037-038-041>044-048-051>054-059>061-231100-
CENTRAL ILLINOIS

CITY           SKY/WX    TMP DP  RH WIND       PRES   REMARKS
PONTIAC        CLEAR     34  30  86 CALM      30.13R
BLOOMINGTON    PTCLDY    32  27  82 NE10      30.13R WCI  24
DECATUR        CLEAR     34  28  79 E6        30.11R WCI  29
PEORIA         CLEAR     41  27  57 E7        30.12R
LACON*         CLEAR     31  28  86 CALM      30.13R
LINCOLN*       CLEAR     36  30  80 E3        30.12S
SPRINGFIELD    CLEAR     40  30  67 E12       30.11S
TAYLORVILLE    CLEAR     39  30  70 E10       30.09S WCI  32
$$

ILZ033-039-045-046-055>057-062-063-231100-
EAST-CENTRAL ILLINOIS

CITY           SKY/WX    TMP DP  RH WIND       PRES   REMARKS
CHAMPAIGN      PTCLDY    37  28  70 NE8       30.11R WCI  31
RANTOUL*       CLEAR     38  28  69 CALM      30.12S
MATTOON        PTCLDY    37  29  72 NE8       30.09R WCI  31
PARIS*         PTCLDY    38  30  74 CALM      30.11R
$$

ILZ079-100>102-231100-
SOUTHWEST ILLINOIS

CITY           SKY/WX    TMP DP  RH WIND       PRES   REMARKS
ALTON          CLEAR     45  36  70 NE7       30.07R
BELLEVILLE     CLEAR     46  36  68 NE7       30.06R
CAHOKIA*       CLEAR     42  38  85 CALM      30.06R
SPARTA*        CLEAR     45  34  65 NE3       30.06R
$$

ILZ064>066-069>071-074>076-080>082-084>086-088>090-092>094-231100-
SOUTH-CENTRAL ILLINOIS

CITY           SKY/WX    TMP DP  RH WIND       PRES   REMARKS
CARBONDALE     CLEAR     41  37  86 CALM      30.05R
CAIRO*         CLEAR     47  39  73 CALM      30.04R
MARION         CLEAR     43  39  87 CALM      30.05R
MT. VERNON     PTCLDY    46  30  53 NE9       30.07R
CENTRALIA*       N/A     46  36  68 CALM      30.07R
SALEM*         CLEAR     46  39  77 NE7       30.07S
METROPOLIS*    CLEAR     45  36  70 N5        30.03R
$$

ILZ067-068-072-073-078-083-087-091-231100-
SOUTHEAST ILLINOIS

CITY           SKY/WX    TMP DP  RH WIND       PRES   REMARKS
FAIRFIELD*     CLEAR     46  39  76 NE7       30.07R
HARRISBURG*    PTCLDY    47  37  67 NE7       30.06R
ROBINSON*      CLEAR     42  34  72 NE5       30.10R
CARMI*         PTCLDY    46  41  83 NE6       30.06R
$$

ABBREVIATIONS USED IN REMARKS
   TC - TEMPERATURE IN CELSIUS
  WCI - WIND CHILL INDEX
   HX - HEAT INDEX
  VSB - VISIBILITY
$$




USA.gov is the U.S. government's official web portal to all federal, state and local government web resources and services.